SL-8 DEB, 21401

Orbit data source: Space-Track

SL-8 DEB, 21401 is space debris in LEO originally from a launch on Tue, 12 Feb 1991 UTC launched from the Plesetsk Missile And Space Complex (PKMTR). Debris objects in space refer to the collection of defunct objects orbiting the Earth. Examples of debris include non-operational satellites, rocket bodies, and fragments generated from explosions, collisions, or faulty payload assembly.

Loading next visibility...
Identifier
21401, 1991-009BQ
Orbit
LEO
Country
Flag of CISCIS
Related business
Manufacturer
Unknown
Mission
Spacecraft
Bus & Motor
Unknown
Mass
Unknown
Launch date (UTC)
1991-02-12 (35 years ago)
Launch vehicle
Unknown
Launch site
Plesetsk Missile And Space Complex (PKMTR)
Object type
Payload
Rocket body
Debris
Shape & HBR
Unknown shape, 0.1 m
Radar Cross Section
Medium (>0.1 m² and <1 m²)

Expand to show TLE details & history
Last TLE update: 3 days ago

TLE from 3 days ago
0 SL-8 DEB
1 21401U 91009BQ  26170.55744005  .00000063  00000-0  76018-3 0  9997
2 21401  74.1361  21.7505 0141078 281.6344 103.0214 12.16996576566988
Epoch: 2026-06-19T13:22Z
TLE epoch observation values (Epoch: 2026-06-19T13:22:42.820Z)
Latitude
25.18625°
Longitude
-79.06982°
Altitude
1,635.063 km
Speed
7.044 km/s
True Right ascension
01h 57m 34s
True Declination
25° 04' 07"
Sunlit
Object was in daylight at epoch
Visualization orbit readout
Latitude
Unknown
Longitude
Unknown
Altitude
Unknown
Speed
Unknown
Apparent Right ascension
Unknown
Apparent Declination
Unknown
Sunlit
N/A
Visualization observer readout
Local Sidereal Time
08:24:43
Azimuth
Unknown
Elevation
Unknown
Doppler factor
Unknown
Orbital elements
Apogee altitude
1,716.118 km
Perigee altitude
1,490.911 km
Semi-major axis
7,981.652 km
Eccentricity
0.01411
Inclination
74.1361°
RAAN
21.7505°
Arg. of periapsis
281.6344°
True anomaly
104.59003°
Mean anomaly
103.0214°
Eccentric anomaly
103.80636°
Mean motion
3.04372 °/min
Orbital period
118.28 mins
BSTAR
0.00076018
Loading maneuver chart data...
Computing Atmospheric mass density...
Loading historical data...
Loading historical data...
Loading historical data...
Loading historical data...
Loading historical data...
Loading historical data...
Loading historical data...

Documentation

Showing up to 5 results
|